Flag for Switzerland Weather past 2 weeks in Lugano, Switzerland

Now
55 °F

Broken clouds.


Feels Like: 52 °F
Forecast: 42 / 70 °F
Wind: 12 mph from Northeast

Location: Lugano Airport

Current Time: Mar 30, 2015 at 8:25:45 PM

Latest Report: Mar 30, 2015 at 7:50 PM


Visibility: N/A

Pressure: 29.80 "Hg

Humidity: 67%

Dew point: 45 °F

Location of LuganoLocation

Historic Weather in Lugano — Graph

°F

Lugano temperature yesterday

Maximum temperature yesterday: 64 °F (at 4:20 PM)
Minimum temperature yesterday: 39 °F (at 6:50 AM)
Average temperature yesterday: 53 °F

Past Weeks' High & Low Weather Summary

 TemperatureHumidityPressure
High68 °F (Mar 30, 1:50 PM)100% (Mar 16, 4:20 AM)30.39 "Hg (Mar 16, 4:20 AM)
Low34 °F (Mar 18, 5:50 AM)19% (Mar 27, 1:20 PM)29.50 "Hg (Mar 25, 5:50 PM)
Average50 °F75%30.00 "Hg
* Reported Mar 15 6:20 PM — Mar 30 7:20 PM, Lugano, Weather by CustomWeather, © 2015

Note: Actual official high and low records may vary slightly from our data, if they occured in-between our weather recording intervals... More about our weather records

Advertising

Lugano weather history for previous 24 hours

 ConditionsComfort  
Time TempWeatherWind HumidityBarometerVisibility
7:20 PM
Mon, Mar 30
55 °FSprinkles. Broken clouds.13 mph72%29.80 "HgN/A
6:50 PM57 °FSprinkles. Partly sunny.13 mph63%29.77 "HgN/A
6:20 PM57 °FSprinkles. Partly sunny.15 mph59%29.74 "HgN/A
5:50 PM59 °FPartly sunny.21 mph55%29.71 "HgN/A
5:20 PM61 °FBroken clouds.18 mph48%29.68 "HgN/A
4:50 PM63 °FBroken clouds.20 mph45%29.68 "HgN/A
4:20 PM63 °FPartly sunny.20 mph45%29.65 "HgN/A
3:50 PM64 °FScattered clouds.22 mph43%29.65 "HgN/A
3:20 PM66 °FScattered clouds.22 mph43%29.65 "HgN/A
2:50 PM66 °FPassing clouds.16 mph43%29.65 "HgN/A
2:20 PM66 °FScattered clouds.12 mph40%29.65 "HgN/A
1:50 PM68 °FPartly sunny.5 mph38%29.65 "HgN/A
1:20 PM66 °FPartly sunny.7 mph40%29.65 "HgN/A
12:50 PM66 °FPartly sunny.8 mph40%29.65 "HgN/A
12:20 PM64 °FPartly sunny.5 mph43%29.65 "HgN/A
11:50 AM64 °FPartly sunny.9 mph46%29.68 "HgN/A
11:20 AM61 °FPartly sunny.13 mph48%29.65 "HgN/A
10:50 AM61 °FPartly sunny.12 mph52%29.68 "HgN/A
10:20 AM57 °FPartly sunny.5 mph55%29.68 "HgN/A
9:50 AM54 °FPassing clouds.3 mph63%29.65 "HgN/A
9:20 AM50 °FClear.3 mph71%29.65 "HgN/A
8:50 AM48 °FScattered clouds.1 mph76%29.68 "HgN/A
8:20 AM45 °FScattered clouds.1 mph81%29.68 "HgN/A
7:50 AM45 °FPassing clouds.3 mph81%29.68 "HgN/A
7:20 AM43 °FPassing clouds.1 mph87%29.68 "HgN/A
6:50 AM43 °FPassing clouds.1 mph87%29.65 "HgN/A
6:20 AM43 °FClear.1 mph87%29.65 "Hg10 mi
5:50 AM43 °FClear.1 mph93%29.65 "HgN/A
5:20 AM43 °FClear.1 mph87%29.65 "HgN/A
4:50 AM45 °FClear.2 mph81%29.65 "Hg10 mi
4:20 AM45 °FPassing clouds.5 mph81%29.65 "HgN/A
3:50 AM45 °FClear.1 mph87%29.65 "Hg10 mi
3:20 AM46 °FCool.1 mph82%29.68 "HgN/A
2:50 AM46 °FPassing clouds.1 mph82%29.68 "HgN/A
2:20 AM46 °FClear.2 mph82%29.71 "Hg10 mi
1:50 AM46 °FClear.2 mph82%29.71 "HgN/A
1:20 AM48 °FClear.1 mph76%29.71 "HgN/A
12:50 AM48 °FClear.2 mph82%29.74 "HgN/A
12:20 AM50 °FCool.1 mph76%29.74 "HgN/A
11:50 PM
Sun, Mar 29
48 °FClear.1 mph76%29.74 "HgN/A
11:20 PM52 °FPassing clouds.1 mph67%29.74 "HgN/A
10:50 PM52 °FPassing clouds.3 mph67%29.77 "HgN/A
10:20 PM52 °FPassing clouds.2 mph67%29.77 "HgN/A
9:50 PM52 °FPassing clouds.5 mph67%29.77 "HgN/A
9:20 PM55 °FClear.2 mph59%29.77 "Hg10 mi
8:50 PM55 °FClear.1 mph59%29.77 "Hg10 mi
8:20 PM57 °FPartly sunny.1 mph55%29.77 "HgN/A
Weather by CustomWeather, © 2015

See weather overviewHow to use our weather pages